Regional Weather Roundup
Issued by NWS

Home | Current Version | Previous Version | Text Only | Print | Product List | Glossary Off
Versions: 1 2 3 4 5 6 7 8 9 10 11 12 13 14 15 16 17 18 19 20 21 22 23 24 25 26 27 28 29 30 31 32 33 34 35 36 37 38 39 40 41 42 43 44 45 46 47 48 49 50

000
ASUS43 KOAX 272210
RWRNE

WEATHER ROUNDUP FOR NEBRASKA
NATIONAL WEATHER SERVICE OMAHA NE
400 PM CST THU NOV 27 2014

NOTES: SATELLITE DATA IS BEING USED TO AUGMENT CLOUD COVER ABOVE
       12000 FEET.
       "FAIR" INDICATES FEW OR NO CLOUDS BELOW 12,000 FEET WITH NO
       SIGNIFICANT WEATHER AND/OR OBSTRUCTIONS TO VISIBILITY.

  * THESE STATIONS DO NOT REPORT WEATHER SUCH AS RAIN...SNOW OR FOG.

NEZ001>004-019>022-054>056-272300-
NEBRASKA PANHANDLE

CITY           SKY/WX    TMP DP  RH WIND       PRES   REMARKS
SCOTTSBLUFF    MOSUNNY   43  33  68 E3        29.99F
ALLIANCE       SUNNY     57  30  35 SW9       29.97F
CHADRON        MOSUNNY  N/A N/A N/A W14       29.93F
KIMBALL        CLOUDY    55  30  39 W15       30.03F
SIDNEY         CLOUDY    45  34  65 SW12      30.04F
$$

NEZ057>060-069>072-079>082-272300-
SOUTHWEST NEBRASKA

CITY           SKY/WX    TMP DP  RH WIND       PRES   REMARKS
NORTH PLATTE   SUNNY     49  24  37 S10       30.05F
IMPERIAL       MOSUNNY   62  30  29 SW7       30.04F
LEXINGTON      SUNNY     47  22  37 S13       30.09F
MCCOOK         MOSUNNY   55  25  31 SE13G20   30.06F
OGALLALA       MOSUNNY   58  38  46 SW8       30.02F
$$

NEZ005>010-023>029-035>040-094-272300-
NORTH CENTRAL NEBRASKA

CITY           SKY/WX    TMP DP  RH WIND       PRES   REMARKS
VALENTINE      PTCLDY    45  24  43 S9        29.98F
AINSWORTH      PTCLDY    43  22  44 S14       30.01F
BROKEN BOW     SUNNY     43  22  43 S21       30.07F
O`NEILL        PTCLDY    33  17  51 S16G22    30.12F WCI  23
ORD            PTCLDY    38  19  46 S18G24    30.11F WCI  28
THEDFORD       MOSUNNY   49  26  40 S14       30.02S
$$

NEZ041-046>049-061>064-073>077-083>087-272300-
SOUTH CENTRAL NEBRASKA

CITY           SKY/WX    TMP DP  RH WIND       PRES   REMARKS
GRAND ISLAND   PTCLDY    37  18  46 S16G22    30.19F WCI  28
AURORA         MOCLDY    36  17  47 S13       30.20F WCI  27
HASTINGS       MOSUNNY   38  17  42 S13       30.17F WCI  30
HEBRON         PTCLDY    39  14  35 S14       30.25F WCI  31
HOLDREGE       SUNNY     44  20  37 S16G23    30.11F
KEARNEY *      SUNNY     39  19  45 SE20      30.15F WCI  30
YORK           PTCLDY    32  16  51 S14       30.23S WCI  22
$$

NEZ011>018-030>034-042>045-272300-
NORTHEAST NEBRASKA

CITY           SKY/WX    TMP DP  RH WIND       PRES   REMARKS
NORFOLK        PTCLDY    27  16  63 SE16      30.22F WCI  15
ALBION         PTCLDY    33  15  46 S17G24    30.18F WCI  23
BLAIR          PTCLDY    23   8  52 SE9       30.30F WCI  13
COLUMBUS *     PTCLDY    28  14  54 SE10      30.26F WCI  19
FREMONT        MOCLDY    26  14  59 E13       30.29F WCI  15
TEKAMAH        MOCLDY    21   6  52 SE14      30.33F WCI   8
WAYNE          MOCLDY    20   8  59 SE13      30.27S WCI   8
$$

NEZ050>053-065>068-078-088>093-272300-
SOUTHEAST NEBRASKA

CITY           SKY/WX    TMP DP  RH WIND       PRES   REMARKS
LINCOLN        PTCLDY    32  14  47 SE14      30.29F WCI  22
OMAHA EPPLEY   MOCLDY    22   8  55 SE14      30.36F WCI   9
BEATRICE       CLEAR     35  18  49 SE9       30.28F WCI  28
FALLS CITY     PTCLDY    30  13  49 SE12      30.36F WCI  20
NEBRASKA CITY  PTCLDY    27  11  51 SE9       30.34F WCI  18
PLATTSMOUTH    PTCLDY    25   9  49 SE10      30.33F WCI  15
$$

NEZ044-045-051>053-067-272300-
OMAHA AREA

CITY           SKY/WX    TMP DP  RH WIND       PRES   REMARKS
OMAHA EPPLEY   MOCLDY    22   8  55 SE14      30.36F WCI   9
BLAIR          PTCLDY    23   8  52 SE9       30.30F WCI  13
FREMONT        MOCLDY    26  14  59 E13       30.29F WCI  15
MILLARD        PTCLDY    25   9  51 SE12      30.34F WCI  14
OFFUTT AFB     MOCLDY    24   9  53 E9        30.35F WCI  14
PLATTSMOUTH    PTCLDY    25   9  49 SE10      30.33F WCI  15
WAHOO          FAIR      28  14  56 SE17      30.29F WCI  16
$$



USA.gov is the U.S. government's official web portal to all federal, state and local government web resources and services.